Weather History for Casper, WY

Change the Weather History Date:

Sunday, November 18, 2012

  Actual Average Record
Temperature  
Mean Temperature 48 °F 32 °F  
Max Temperature 57 °F 43 °F 68 °F (2008)
Min Temperature 38 °F 21 °F 0 °F (1969)
Degree Days  
Heating Degree Days 17 33  
Month to date heating degree days 468 523  
Since 1 July heating degree days 1239 1422  
Cooling Degree Days 0 0  
Month to date cooling degree days 0 0  
Year to date cooling degree days 697 422  
Moisture  
Dew Point 30 °F    
Average Humidity 50    
Maximum Humidity 70    
Minimum Humidity 30    
Precipitation  
Precipitation 0.00 in 0.03 in 0.68 in (1981)
Month to date precipitation 0.33 0.51  
Year to date precipitation 7.33 11.78  
Snow  
Snow 0.00 in 0.40 in - ()
Month to date snowfall 4.1 6.1  
Since 1 July snowfall 9.3 15.3  
Since 1 September snowfall 9.3 15.3  
Snow Depth 0.00 in    
Sea Level Pressure  
Sea Level Pressure 29.89 in    
Wind  
Wind Speed 19 mph (SW)    
Max Wind Speed 33 mph    
Max Gust Speed 44 mph    
Visibility 10 miles    
Events      
T = Trace of Precipitation, MM = Missing Value Source: NWS Daily Summary

Daily Weather History Graph

Daily Weather History Graph

Search for Another Location

Airport:

Trip Planner

Search our weather history database for the weather conditions in past years. The results will help you decide how hot, cold, wet, or windy it might be!

Date:

Astronomy

Nov. 18, 2012 Rise Set
Actual Time 7:02 AM MST 4:39 PM MST
Civil Twilight 6:31 AM MST 5:10 PM MST
Nautical Twilight 5:57 AM MST 5:44 PM MST
Astronomical Twilight 5:23 AM MST 6:18 PM MST
Moon 11:29 AM MST 10:04 PM MST
Length of Visible Light 10h 38m
Length of Day
9h 37m
Waxing Crescent, 31% of the Moon is Illuminated
Nov 18
Waxing Crescent
Nov 20
First Quarter
Nov 28
Full
Dec 6
Last Quarter
Dec 13
New

Hourly Weather History & Observations

Time (MST) Temp. Windchill Dew Point Humidity Pressure Visibility Wind Dir Wind Speed Gust Speed Precip Events Conditions
12:53 AM 41.0 °F 32.5 °F 30.9 °F 67% 29.88 in 10.0 mi SW 17.3 mph - N/A   Clear
1:53 AM 44.1 °F 36.8 °F 30.9 °F 60% 29.85 in 10.0 mi SSW 16.1 mph - N/A   Clear
2:53 AM 39.0 °F 31.0 °F 30.0 °F 70% 29.86 in 10.0 mi WSW 13.8 mph - N/A   Clear
3:53 AM 39.0 °F 32.3 °F 30.0 °F 70% 29.85 in 10.0 mi SW 10.4 mph - N/A   Clear
4:53 AM 41.0 °F 32.8 °F 30.0 °F 65% 29.86 in 10.0 mi SW 16.1 mph - N/A   Clear
5:53 AM 43.0 °F 34.2 °F 30.0 °F 60% 29.85 in 10.0 mi SSW 20.7 mph - N/A   Clear
6:53 AM 43.0 °F 34.5 °F 30.0 °F 60% 29.87 in 10.0 mi SSW 19.6 mph 31.1 mph N/A   Clear
7:53 AM 43.0 °F 34.0 °F 30.9 °F 62% 29.88 in 10.0 mi SSW 21.9 mph 29.9 mph N/A   Clear
8:53 AM 46.9 °F - 30.9 °F 54% 29.86 in 10.0 mi SSW 28.8 mph 40.3 mph N/A   Clear
9:53 AM 50.0 °F - 32.0 °F 50% 29.89 in 10.0 mi SSW 27.6 mph 36.8 mph N/A   Clear
10:53 AM 54.0 °F - 32.0 °F 43% 29.85 in 10.0 mi SW 26.5 mph 35.7 mph N/A   Clear
11:53 AM 55.0 °F - 30.9 °F 40% 29.82 in 10.0 mi SW 25.3 mph 35.7 mph N/A   Clear
12:53 PM 55.9 °F - 28.9 °F 36% 29.83 in 10.0 mi SW 28.8 mph 38.0 mph N/A   Clear
1:53 PM 57.0 °F - 27.0 °F 32% 29.81 in 10.0 mi WSW 26.5 mph 36.8 mph N/A   Clear
2:53 PM 55.9 °F - 26.1 °F 32% 29.83 in 10.0 mi WSW 26.5 mph 39.1 mph N/A   Clear
3:53 PM 52.0 °F - 27.0 °F 38% 29.88 in 10.0 mi WSW 20.7 mph 28.8 mph N/A   Clear
4:53 PM 48.9 °F - 28.9 °F 46% 29.91 in 10.0 mi WSW 17.3 mph 26.5 mph N/A   Clear
5:53 PM 46.9 °F - 28.9 °F 50% 29.92 in 10.0 mi WSW 17.3 mph 26.5 mph N/A   Clear
6:53 PM 46.9 °F - 28.9 °F 50% 29.94 in 10.0 mi SW 15.0 mph - N/A   Partly Cloudy
7:53 PM 45.0 °F 38.9 °F 28.0 °F 52% 29.97 in 10.0 mi SW 12.7 mph - N/A   Mostly Cloudy
8:53 PM 44.1 °F 38.1 °F 28.0 °F 53% 29.97 in 10.0 mi SW 11.5 mph 21.9 mph N/A   Partly Cloudy
9:53 PM 44.1 °F 36.8 °F 30.0 °F 58% 29.99 in 10.0 mi SW 16.1 mph - N/A   Overcast
10:53 PM 41.0 °F 33.9 °F 30.0 °F 65% 30.00 in 10.0 mi SW 12.7 mph - N/A   Clear
11:53 PM 39.9 °F 32.1 °F 30.0 °F 68% 30.02 in 10.0 mi SW 13.8 mph - N/A   Clear